Home > Weather > Burbank > Past weeks

Flag for USA Past Weather in Burbank, California, USA — Yesterday and Last 2 Weeks

Now
55 °F

Clear.


Feels Like: 55 °F
Forecast: 55 / 76 °F
Wind: No wind

Location: Bob Hope Airport

Current Time: May 27, 2016 at 5:27:43 AM

Latest Report: May 27, 2016 at 4:53 AM


Visibility: 10 mi

Pressure: 29.91 "Hg

Humidity: 77%

Dew Point: 48 °F

Location of BurbankLocation

Past Weather in Burbank — Graph

°F

Burbank Temperature Yesterday

Maximum temperature yesterday: 72 °F (at 2:53 PM)
Minimum temperature yesterday: 54 °F (at 6:00 AM)
Average temperature yesterday: 62 °F

High & Low Weather Summary for the Past Weeks

 TemperatureHumidityPressure
High84 °F (May 13, 3:53 PM)94% (May 12, 5:01 AM)30.06 "Hg (May 12, 5:01 AM)
Low50 °F (May 22, 5:53 AM)29% (May 13, 2:53 PM)29.77 "Hg (May 19, 5:53 PM)
Average63 °F68%29.92 "Hg
* Reported May 12 3:53 AM — May 27 3:53 AM, Burbank, Weather by CustomWeather, © 2016

Note: Actual official high and low records may vary slightly from our data, if they occured in-between our weather recording intervals... More about our weather records

Advertising

Burbank Weather History for the Previous 24 Hours

Scroll right to see more
 ConditionsComfort  
Time TempWeatherWind HumidityBarometerVisibility
3:53 AM
Fri, May 27
56 °FClear.No wind77%29.91 "Hg10 mi
2:53 AM56 °FClear.No wind77%29.92 "Hg10 mi
1:53 AM57 °FClear.No wind74%29.93 "Hg10 mi
12:53 AM58 °FClear.No wind75%29.94 "Hg10 mi
11:53 PM
Thu, May 26
58 °FClear.3 mph75%29.94 "Hg10 mi
10:53 PM59 °FClear.5 mph75%29.95 "Hg10 mi
9:53 PM61 °FClear.8 mph67%29.94 "Hg10 mi
8:53 PM62 °FSunny.8 mph62%29.93 "Hg10 mi
7:53 PM63 °FSunny.8 mph60%29.93 "Hg10 mi
6:53 PM66 °FSunny.8 mph59%29.92 "Hg10 mi
5:53 PM68 °FSunny.10 mph55%29.92 "Hg10 mi
4:53 PM69 °FSunny.9 mph53%29.93 "Hg10 mi
3:53 PM71 °FSunny.8 mph51%29.94 "Hg10 mi
2:53 PM72 °FSunny.12 mph48%29.96 "Hg10 mi
1:53 PM71 °FSunny.7 mph49%29.97 "Hg10 mi
12:53 PM71 °FSunny.9 mph49%29.99 "Hg10 mi
11:53 AM70 °FSunny.No wind47%30.00 "Hg10 mi
10:53 AM66 °FSunny.3 mph54%30.02 "Hg10 mi
9:53 AM63 °FPassing clouds.5 mph58%30.03 "Hg10 mi
8:53 AM61 °FScattered clouds.8 mph67%30.04 "Hg10 mi
7:53 AM58 °FScattered clouds.No wind75%30.04 "Hg10 mi
6:53 AM56 °FPartly sunny.No wind77%30.04 "Hg10 mi
6:00 AM54 °FPassing clouds.No wind77%30.06 "Hg10 mi
Weather by CustomWeather, © 2016

See weather overviewHow to use our weather pages